Location: Newark
(48.3453°N, 0.5589°E)
Time: 10:52:13
(UTC+00:00)

A-11 Canister half - Pass Details

Date: 08 December 2019
Orbit: 1517 x 1683 km, 47.2° (Epoch: 23 January)

Event Time Altitude Azimuth Distance (km) Brightness Sun altitude
Rises 12:49:30 0° 230° (SW) 4,751 12.5 17.7°
Reaches altitude 10° 12:52:36 10° 227° (SW) 3,790 12.2 17.5°
Maximum altitude 13:01:59 58° 151° (SSE) 1,851 10.1 17.1°
Drops below altitude 10° 13:11:43 10° 76° (ENE) 3,921 10.9 16.6°
Sets 13:14:58 0° 73° (ENE) 4,924 11.3 16.4°
